AirNav   Everest Fuels
 
 930 users online  

9PS3 Doylestown Heliport
Doylestown, Pennsylvania, USA

GOING TO DOYLESTOWN?


FAA INFORMATION EFFECTIVE 18 JUNE 2020

Location

FAA Identifier: 9PS3
Lat/Long: 40-18-32.2900N 075-08-54.3500W
40-18.538167N 075-08.905833W
40.3089694,-75.1484306
(estimated)
Elevation: 325 ft. / 99 m (estimated)
Variation: 12W (1990)
From city: 2 miles W of DOYLESTOWN, PA
Time zone: UTC -4 (UTC -5 during Standard Time)
Zip code: 18901

Heliport Operations

Heliport use: Private use, RY H1 MEDICAL USE.
Activation date: 03/1994
Control tower: no
ARTCC: NEW YORK CENTER
FSS: WILLIAMSPORT FLIGHT SERVICE STATION
Attendance: CONTINUOUS
Wind indicator: yes
Segmented circle: no
Lights: PHONE REQ; FOR PERIMETER LGTS CALL 215-345-2200.

Heliport Communications

WX ASOS at DYL (1.9 nm NE): 118.875 (215-345-0392)
WX AWOS-3 at CKZ (8 nm NW): 126.325 (215-257-7291)
WX AWOS-3 at LOM (12 nm SW): 118.925 (215-646-1068)
WX AWOS-3 at UKT (13 nm NW): 119.475 (215-538-7610)
WX ASOS at PNE (15 nm SE): 121.15 (215-677-0146)
WX ASOS at TTN (15 nm E): 126.775 (609-538-8690)
WX AWOS-3 at N40 (17 nm NE): 121.725
WX ASOS at PTW (19 nm W): 119.425 (610-495-0823)

Nearby radio navigation aids

VOR radial/distance  VOR name  Freq  Var
ARDr297/11.5YARDLEY VOR/DME108.2010W
PTWr084/19.6POTTSTOWN VORTAC116.5009W
SBJr238/24.8SOLBERG VOR/DME112.9010W
FJCr161/28.7ALLENTOWN VORTAC117.5010W
ETXr133/29.4EAST TEXAS VOR/DME110.2009W
RBVr292/30.6ROBBINSVILLE VORTAC113.8010W
GXUr317/31.0MC GUIRE VORTAC110.6012W
BWZr218/32.9BROADWAY VOR/DME114.2011W
MXEr055/33.5MODENA VORTAC113.2009W

 
NDB name  Hdg/Dist  Freq  Var  ID
AMBLER042/12.627512WING .. -. --.

Heliport Services

Runway Information

Helipad H1

Dimensions: 65 x 65 ft. / 20 x 20 m
Surface: asphalt
Runway edge lights: PERI
Latitude: 40-18.538167N
Longitude: 075-08.905833W
Elevation: 325.0 ft.
Traffic pattern: leftleft

Heliport Ownership and Management from official FAA records

Ownership: Privately-owned
Owner: DOYLESTOWN HOSPITAL
595 WEST STATE STREET
DOYLESTOWN, PA 18901
Phone 215-345-2200
Manager: TOM SMITH
595 WEST STATE STREET
DOYLESTOWN, PA 18901
Phone 215-345-2200

Heliport Operational Statistics

Aircraft based on the field: 1
Helicopters: 1
    

Additional Remarks

FOR CD CTC PHILADELPHIA APCH AT 800-354-9884.

Instrument Procedures

There are no published instrument procedures at 9PS3.

Some nearby airports with instrument procedures:

KDYL - Doylestown Airport (2 nm NE)
KCKZ - Pennridge Airport (8 nm NW)
KLOM - Wings Field Airport (12 nm SW)
KUKT - Quakertown Airport (13 nm NW)
N10 - Perkiomen Valley Airport (14 nm SW)
KPNE - Northeast Philadelphia Airport (15 nm SE)
KTTN - Trenton Mercer Airport (15 nm E)
N40 - Sky Manor Airport (17 nm NE)
N85 - Alexandria Airport (18 nm N)
KPTW - Heritage Field Airport (19 nm W)
 
Loc | Ops | Rwys | IFR | FBO | Links
Com | Nav | Svcs | Stats | Notes
Area around 9PS3 (Doylestown Heliport)
 
Road maps at: MapQuest Bing Google
 
Aerial photo
No photo
 
Sectional chart

 
Airport distance calculator
Flying to Doylestown Heliport? Find the distance to fly.

From to 9PS3

Sunrise and sunset
Times for 02-Jul-2020
 Local
(UTC-4)
 Zulu
(UTC)
Morning civil twilight05:0409:04
Sunrise05:3609:36
Sunset20:3300:33
Evening civil twilight21:0601:06

Current date and time
Zulu (UTC)  02-Jul-2020 23:51:14
Local (UTC-4)  02-Jul-2020 19:51:14
 
METAR
KDYL 
2nm NE 
022254Z AUTO 35005KT 10SM FEW080 SCT110 33/16 A2980 RMK AO2 SLP085 T03330161
KCKZ 
8nm NW 
022335Z AUTO 30005KT 10SM CLR 30/17 A2984 RMK AO2
KLOM 
12nm SW 
022335Z AUTO 32005KT 10SM CLR 31/17 A2982 RMK AO2 T03100165
KUKT 
13nm NW 
022340Z AUTO 00000KT 10SM CLR 30/18 A2984 RMK A01
KPNE 
15nm SE 
022254Z AUTO 34008KT 10SM BKN120 34/16 A2980 RMK AO2 SLP089 T03390156
KTTN 
15nm E 
ASOS 133.70 609-538-8690
022253Z 34005KT 10SM CLR 31/17 A2979 RMK AO2 SLP079 T03110167
KPTW 
19nm W 
022254Z AUTO 32008KT 8SM CLR 31/17 A2984 RMK AO2 SLP098 T03060167
TAF
KPNE 
15nm SE 
022042Z 0221/0318 34012KT P6SM VCSH FEW060 FM030000 30005KT P6SM SCT200 FM031500 32006KT P6SM BKN100
KTTN 
15nm E 
021720Z 0218/0318 32007KT P6SM SCT060 FM022100 32007KT P6SM VCSH SCT060 FM030000 30006KT P6SM SCT200 FM031400 32005KT P6SM BKN150
NOTAMs
Click for the latest NOTAMs
NOTAMs are issued by the DoD/FAA and will open in a separate window not controlled by AirNav.

 

 
 

Would you like to see your business listed on this page?

 If your business provides an interesting product or service to pilots, flight crews, aircraft, or users of the Doylestown Heliport, you should consider listing it here.  To start the listing process, click on the button below
 
Add a business
 

Other Pages about Doylestown Heliport

Update a link
 
Copyright © AirNav, LLC. All rights reserved. Privacy Policy  Contact